Probability
0 0 0 0 0 0 0 0 0 0 0 0 0 0 0 0 0 0 0 0 0 0 0 0 0 0 0 0 0 0 0 0 0 0 0 0 0 0 0 0 0 0 0 0
0 0 0 0 0 0 0 0 0 0 0 0 0 0 0 0 0 0 0 0 0 0 0 0 0 0 0 0 0 0 0 0 0 0 0 0 0 0 0 0 0 0 0 0
0 0 0 0 0 0 0 0 0 0 0 0 0 0 0 0 0 0 0 0 0 0 0 0 0 0 0 0 0 0 0 0 0 0 0 0 0 0 0 0 0 0 0 0
0 0 0 0 0 0 0 0 0 0 0 0 0 0 0 0 0 0 0 0 0 0 0 0 0 0 0 0 0 0 0 0 0 0 0 0 0 0 0 0 0 0 0 0
0 0 0 0 0 0 0 0 0 0 0 0 0 0 0 0 0 0 0 0 0 0 0 0 0 0 0 0 0 0 0 0 0 0 0 0 0 0 0 0 0 0 0 0
0 0 0 0 0 0 0 0 0 0 0 0 0 0 0 0 0 0 0 0 0 0 0 0 0 0 0 0 0 0 0 0 0 0 0 0 0 0 0 0 0 0 0 0
0 0 0 0 0 0 0 0 0 0 0 0 0 0 0 0 0 0 0 0 0 0 0 0 0 0 0 0 0 0 0 0 0 0 0 0 0 0 0 0 0 0 0 0
0 0 0 0 0 0 0 0 0 0 0 0 0 0 0 0 0 0 0 0 0 0 0 0 0 0 0 0 0 0 0 0 0 0 0 0 0 0 0 0 0 0 0 0
0 0 0 0 0 0 0 0 0 0 0 0 0 0 0 0 0 0 0 0 0 0 0 0 0 0 0 0 0 0 0 0 0 0 0 0 0 0 0 0 0 0 0 0
0 0 0 0 0 0 0 0 0 0 0 0 0 0 0 0 0 0 0 0 0 0 0 0 0 0 0 0 0 0 0 0 0 0 0 0 0 0 0 0 0 0 0 0
0 0 0 0 0 0 0 0 0 0 0 0 0 0 0 0 0 0 0 0 0 0 0 0 0 0 0 0 0 0 0 0 0 0 0 0 0 0 0 0 0 0 0 0
0 0 0 0 0 0 0 0 0 0 0 0 0 0 0 0 0 0 0 0 0 0 0 0 0 0 0 0 0 0 0 0 0 0 0 0 0 0 0 0 0 0 0 0
0 0 0 0 0 0 0 0 0 0 0 0 0 0 0 0 0 0 0 0 0 0 0 0 0 0 0 0 0 0 0 0 0 0 0 0 0 0 0 0 0 0 0 0
0 0 0 0 0 0 0 0 0 0 0 0 0 0 0 0 0 0 0 0 0 0 0 0 0 0 0 0 0 0 0 0 0 0 0 0 0 0 0 0 0 0 0 0
0 0 0 0 0 0 0 0 0 0 0 0 0 0 0 0 0 0 0 0 0 0 0 0 0 0 0 0 0 0 0 0 0 0 0 0 0 0 0 0 0 0 0 0
0 0 0 0 0 0 0 0 0 0 0 0 0 0 0 0 0 0 0 0 0 0 0 0 0 0 0 0 0 0 0 0 0 0 0 0 0 0 0 0 0 0 0 0
0 0 0 0 0 0 0 0 0 0 0 0 0 0 0 0 0 0 0 0 0 0 0 0 0 0 0 0 0 0 0 0 0 0 0 0 0 0 0 0 0 0 0 0
0 0 0 0 0 0 0 0 0 0 0 0 0 0 0 0 0 0 0 0 0 0 0 0 0 0 0 0 0 0 0 0 0 0 0 0 0 0 0 0 0 0 0 0
0 0 0 0 0 0 0 0 0 0 0 0 0 0 0 0 0 0 0 0 0 0 0 0 0 0 0 0 0 0 0 0 0 0 0 0 0 0 0 0 0 0 0 0
0 0 0 0 0 0 0 0 0 0 0 0 0 0 0 0 0 0 0 0 0 0 0 0 0 0 0 0 0 0 0 0 0 0 0 0 0 0 0 0 0 0 0 0
0 0 0 0 0 0 0 0 0 0 0 0 0 0 0 0 0 0 0 0 0 0 0 0 0 0 0 0 0 0 0 0 0 0 0 0 0 0 0 0 0 0 0 0
0 0 0 0 0 0 0 0 0 0 0 0 0 0 0 0 0 0 0 0 0 0 0 0 0 0 0 0 0 0 0 0 0 0 0 0 0 0 0 0 0 0 0 0
0 0 0 0 0 0 0 0 0 0 0 0 0 0 0 0 0 0 0 0 0 0 0 0 0 0 0 0 0 0 0 0 0 0 0 0 0 0 0 0 0 0 0 0
0 0 0 0 0 0 0 0 0 0 0 0 0 0 0 0 0 0 0 0 0 0 0 0 0 0 0 0 0 0 0 0 0 0 0 0 0 0 0 0 0 0 0 0
0 0 0 0 0 0 0 0 0 0 0 0 0 0 0 0 0 0 0 0 0 0 0 0 0 0 0 0 0 0 0 0 0 0 0 0 0 0 0 0 0 0 0 0
0 0 0 0 0 0 0 0 0 0 0 0 0 0 0 0 0 0 0 0 0 0 0 0 0 0 0 0 0 0 0 0 0 0 0 0 0 0 0 0 0 0 0 0
0 0 0 0 0 0 0 0 0 0 0 0 0 0 0 0 0 0 0 0 0 0 0 0 0 0 0 0 0 0 0 0 0 0 0 0 0 0 0 0 0 0 0 0
Wind_Speed
5 2 3 5 7 8 10 10 11 10 10 8 6 5 3 3 2 1 1 3 4 5 5 6 6 6 7 7 7 7 7 8 9 9 9 9 9 10 10 10 11 11 11 12
2 0 2 6 10 11 11 9 9 8 9 3 2 2 2 3 2 1 2 4 5 5 6 6 7 7 7 8 8 7 8 9 10 9 10 10 10 11 11 11 11 11 11 13
3 2 4 10 11 10 7 7 8 9 6 3 3 2 3 3 2 1 3 5 5 6 6 6 7 7 7 8 8 8 9 10 10 10 11 11 12 12 12 12 12 12 11 12
2 1 9 9 1 5 5 4 5 4 3 4 3 1 2 2 2 2 4 4 5 5 6 6 6 7 7 8 8 9 10 10 10 10 12 12 12 12 13 11 12 12 13 13
4 4 9 9 3 6 6 4 4 6 4 2 1 2 2 1 1 2 3 4 5 5 6 6 7 7 8 9 9 9 10 11 11 11 12 13 13 14 13 13 13 12 13 13
5 5 9 7 2 3 4 3 3 5 5 3 2 1 3 1 2 3 4 4 4 5 5 7 7 7 8 10 10 11 11 12 11 11 12 14 15 15 13 12 14 14 14 13
6 6 11 6 2 4 4 5 5 6 5 4 5 5 3 3 3 3 4 5 5 6 7 7 8 7 9 10 11 12 12 12 12 11 12 14 14 13 13 14 14 14 15 14
6 6 11 2 5 7 5 4 5 4 4 3 3 3 3 3 4 5 5 6 6 6 8 8 8 8 10 12 12 11 12 12 13 12 11 12 13 14 13 13 15 14 14 14
10 8 2 0 3 3 5 5 3 3 2 2 1 2 3 3 4 5 6 6 6 7 9 9 8 7 11 13 12 12 13 13 13 13 11 11 12 14 13 11 11 12 12 13
4 4 2 1 3 3 3 3 3 2 2 1 1 3 4 4 5 6 6 7 7 8 10 11 10 9 10 12 12 12 14 14 12 13 13 11 9 10 11 11 11 12 13 13
4 2 2 1 2 3 3 3 3 2 1 1 2 3 4 5 6 7 7 7 7 8 10 13 11 11 10 10 11 12 13 13 12 11 12 12 11 10 12 11 14 16 13 12
6 6 6 5 3 3 3 2 2 1 0 1 2 4 5 6 6 7 8 8 9 10 11 12 12 12 11 9 9 11 12 12 10 11 11 11 12 13 17 19 25 26 25 23
3 2 3 3 3 3 3 2 2 1 2 2 3 4 5 6 6 7 8 10 10 11 12 12 12 12 11 10 9 10 12 13 11 11 11 12 12 13 14 16 20 23 24 25
2 4 3 3 3 3 3 2 1 1 2 4 5 5 6 7 8 9 10 11 11 11 12 12 12 13 11 10 9 10 11 14 14 11 11 12 12 12 12 14 15 12 15 21
3 3 4 4 4 3 2 1 0 3 4 5 5 6 7 8 10 11 11 10 10 11 12 11 12 13 10 9 10 11 11 10 10 10 11 11 11 12 12 13 13 13 11 13
3 4 5 4 3 2 1 1 2 4 5 6 7 8 9 9 10 11 11 10 10 12 12 12 13 13 10 10 11 10 9 18 18 12 11 11 11 11 11 11 12 11 11 11
5 4 3 2 1 1 2 3 5 6 7 8 9 10 10 10 11 11 11 10 9 11 11 12 13 12 10 10 10 9 9 12 19 14 10 11 11 11 11 11 11 11 10 13
4 4 3 3 2 3 4 5 6 7 8 9 10 9 9 10 12 13 13 11 10 11 11 11 11 11 10 9 9 8 9 10 10 11 10 10 11 10 10 11 11 12 10 11
4 3 1 1 3 4 5 6 7 7 8 9 9 10 10 11 11 12 11 10 12 14 11 8 16 13 10 12 15 8 9 10 11 10 10 14 13 10 10 10 10 11 10 10
1 0 1 3 4 4 6 7 8 8 8 8 9 11 11 11 10 11 11 10 9 10 10 12 12 9 9 10 16 8 9 10 11 11 10 10 11 10 10 10 10 10 9 9
1 2 4 5 6 6 7 8 8 9 10 9 10 11 12 12 10 9 9 11 10 9 10 16 10 8 8 12 16 8 8 9 10 10 10 10 11 11 10 10 10 10 9 9
3 4 5 6 7 8 8 7 8 9 10 10 10 10 11 12 11 9 9 9 10 14 11 7 7 12 17 19 8 7 8 9 10 9 9 10 10 10 10 10 10 10 9 8
4 5 6 7 8 8 9 8 9 9 10 10 11 11 11 11 9 9 11 7 7 14 12 7 14 22 25 12 6 7 9 10 10 10 10 10 10 10 10 10 9 9 8 8
5 6 7 7 7 8 10 10 9 8 9 10 10 10 10 9 8 7 8 14 18 19 10 13 22 23 21 7 7 8 9 9 9 9 10 9 9 9 9 9 9 8 8 9
6 7 7 7 7 7 9 9 9 9 9 8 9 9 8 7 8 9 8 10 16 18 10 13 21 22 12 7 8 8 9 9 11 10 9 9 9 9 9 9 8 8 8 7
6 6 7 7 7 7 7 7 8 8 8 9 9 7 6 6 8 8 8 9 11 16 12 8 9 12 8 8 9 9 9 10 11 9 9 10 10 10 9 9 10 8 8 7
6 6 6 6 6 6 6 7 8 9 8 9 11 9 8 8 8 8 10 9 9 9 9 8 7 8 8 8 9 9 8 8 9 9 9 9 9 9 9 10 8 8 7 7
Wind_Direction
237 223 189 216 216 200 202 205 218 234 230 239 232 227 212 189 169 143 347 332 320 312 308 311 315 314 312 308 308 307 305 302 296 294 292 291 291 290 287 284 282 281 281 281
265 0 236 258 244 229 228 226 234 257 266 238 193 132 148 176 175 204 306 309 310 311 311 312 311 310 309 307 307 308 303 298 295 296 296 294 292 292 290 288 285 282 279 281
249 308 347 271 240 217 214 210 198 225 236 150 129 154 194 204 195 257 296 300 303 303 300 301 301 302 303 300 304 304 299 296 297 297 296 294 294 295 293 292 288 286 283 282
174 121 241 245 203 176 187 221 199 180 153 147 161 233 259 205 188 284 300 299 300 298 299 299 298 301 298 300 302 301 298 296 296 296 296 297 296 295 294 291 290 289 289 287
154 223 274 287 238 177 179 233 188 159 156 149 68 12 328 179 142 275 285 284 281 283 287 295 299 300 304 304 302 301 299 298 298 298 299 300 299 297 296 295 294 291 289 289
153 194 244 251 185 158 120 240 200 156 161 162 119 41 268 272 327 309 305 296 293 297 299 300 298 301 303 301 302 300 299 299 299 298 297 298 298 298 297 295 295 295 293 290
184 219 258 251 194 132 180 238 165 160 172 176 188 207 243 311 314 308 305 301 300 301 297 292 295 300 298 298 296 296 298 299 299 296 294 295 295 296 297 297 296 295 294 294
168 202 249 204 142 179 194 138 147 162 178 190 216 260 296 306 303 306 305 301 300 297 293 293 294 295 295 296 296 298 300 300 300 298 296 300 298 299 298 298 299 299 298 298
192 210 260 144 162 145 134 138 156 161 168 170 221 272 292 291 293 293 291 289 287 286 290 293 289 286 291 296 300 303 304 302 302 301 297 294 296 299 301 299 298 299 298 298
224 252 225 131 117 110 112 124 125 125 137 154 225 270 282 283 286 288 288 288 288 291 293 295 294 287 283 292 299 302 303 304 304 304 303 299 293 294 298 299 298 297 297 297
229 230 137 212 183 147 113 99 94 86 99 181 241 269 270 277 282 282 285 286 286 288 290 292 294 291 288 290 296 299 300 301 303 301 301 302 299 295 297 291 292 298 299 299
215 201 182 205 188 152 134 132 135 137 234 268 239 258 272 274 275 279 283 286 289 288 287 290 293 293 292 289 289 295 302 304 303 303 302 302 303 302 298 298 301 302 302 301
192 148 147 134 121 126 137 146 159 188 230 264 271 261 267 272 276 279 283 285 285 286 288 291 293 293 293 291 289 289 293 300 302 302 303 303 303 305 307 307 304 304 305 308
139 116 111 123 132 129 132 139 150 253 267 261 263 270 272 274 278 281 282 281 283 286 288 289 291 291 292 291 291 290 292 297 301 299 298 298 300 302 303 305 309 308 310 311
92 108 131 124 118 119 127 134 305 296 287 283 273 274 276 279 282 283 283 285 287 286 287 289 291 293 295 293 292 294 296 297 297 296 296 297 299 300 301 301 303 305 308 311
110 97 108 118 129 140 162 255 279 282 282 281 283 281 278 276 279 283 285 285 287 290 292 293 292 293 296 294 294 295 294 300 306 303 301 300 301 301 302 302 304 306 308 310
133 135 138 143 166 238 256 258 260 269 278 281 282 284 287 289 290 289 289 285 279 280 284 286 288 291 292 290 290 294 295 298 303 304 299 300 300 300 301 302 305 307 305 306
144 149 159 173 205 255 276 276 273 276 276 278 284 288 288 289 289 291 293 295 293 288 282 277 281 290 287 288 290 290 292 294 297 299 301 302 301 301 303 303 304 304 305 309
117 130 162 231 246 251 263 273 278 277 280 284 286 286 284 283 283 287 292 294 295 295 291 279 297 302 292 292 300 291 291 296 300 300 300 303 306 301 301 302 303 303 305 309
83 48 291 286 281 269 273 278 281 283 284 284 286 288 289 287 285 288 290 286 278 275 283 291 293 286 286 289 299 292 293 298 302 303 303 302 301 302 302 303 304 304 305 306
327 304 300 295 291 286 279 280 284 285 287 286 284 286 288 290 289 287 289 292 287 280 286 296 299 293 295 298 303 298 297 301 303 302 302 302 302 302 303 305 305 306 306 307
296 293 293 292 291 291 288 285 283 285 289 288 286 285 289 292 293 288 273 273 285 297 301 289 288 297 305 310 305 301 300 302 301 300 299 299 300 301 303 304 304 303 303 304
284 283 285 286 286 287 291 288 283 283 284 286 288 288 287 288 290 292 295 288 288 300 304 290 300 308 312 315 304 301 300 300 300 299 298 297 297 299 300 301 301 301 301 301
282 282 281 283 288 290 290 288 285 282 280 281 280 277 280 289 288 274 274 294 303 306 302 300 308 312 317 314 301 299 298 298 297 295 295 297 298 298 298 298 298 298 299 300
276 278 281 285 286 282 281 287 290 287 284 283 280 277 273 270 280 290 290 290 298 306 301 303 308 312 314 299 297 297 297 295 298 302 301 301 300 300 299 298 298 299 299 297
270 271 270 267 267 275 280 284 287 290 292 293 292 287 283 281 281 286 289 290 290 300 302 297 297 303 300 297 296 296 296 300 302 301 296 297 298 298 297 298 297 296 296 295
271 270 273 276 272 266 269 277 283 287 288 290 294 295 292 292 291 292 292 293 295 296 296 295 295 295 296 296 296 296 296 296 296 296 297 297 297 296 296 295 295 295 294 293